User: anonymous   Login
Location: Wildlife_Club
(35.6000°N, 81.4330°W)
Time: 05:01:46
(UTC-04:00)
Language:

Cosmos 1782 - Orbit

View from above orbital plane
View from above orbital plane
View from above satellite
View from above satellite

Ground track
Ground track

The orbit data is extracted from the following two-line orbital elements,

1 16986U 86074A   16120.19895542  .00001408  00000-0  94529-4 0  9994
2 16986  82.5072 163.8080 0010400 322.5677  37.4825 15.06043388608538
Epoch (UTC): 29 April 2016 04:46:29
Eccentricity: 0.0010400
inclination: 82.5072°
perigee height: 541 km
apogee height: 555 km
right ascension of ascending node: 163.8080°
argument of perigee: 322.5677°
revolutions per day: 15.06043388
mean anomaly at epoch: 37.4825°
orbit number at epoch: 60853

The dashed part of the orbit path shows where the satellite is in the earth's shadow,  

DLR